Location: City of Moscow
(46.7306°N, 116.9989°W)
Time: 19:47:28
(UTC+00:00)

CBERS-1 - Pass Details

Date: 11 December 2025
Orbit: 764 x 773 km, 98.8° (Epoch: 11 January)

Event Time Altitude Azimuth Distance (km) Brightness Sun altitude
Rises 14:39:30 0° 8° (N) 3,252 7.1 -7.3°
Reaches altitude 10° 14:41:56 10° 1° (N) 2,319 6.2 -6.9°
Maximum altitude 14:46:38 39° 294° (WNW) 1,143 4.5 -6.2°
Drops below altitude 10° 14:51:19 10° 226° (SW) 2,300 6.3 -5.5°
Sets 14:53:43 0° 219° (SW) 3,221 7.1 -5.1°
